Location: Newark
(35.2672°N, 80.7344°W)
Time: 10:48:16
(UTC+00:00)

Transit 2A Rocket - Pass Details

Date: 27 January 2020
Orbit: 592 x 911 km, 66.7° (Epoch: 19 February)

Event Time Altitude Azimuth Distance (km) Brightness Sun altitude
Rises 19:47:38 0° 325° (NW) 3,091 8.0 27.8°
Reaches altitude 10° 19:49:59 10° 318° (NW) 2,218 7.4 27.6°
Maximum altitude 19:54:46 43° 248° (WSW) 1,068 7.1 27.0°
Drops below altitude 10° 19:59:59 10° 178° (S) 2,409 8.4 26.3°
Sets 20:02:37 0° 172° (S) 3,386 8.9 26.0°
